Wind_Speed
23 24 24 24 24 24 23 22 21 21 20 18 16 13 11 8 6 6 5 6 8 12 15 18 20 22 23 25 26 27 29 29 29 30 31 32 32 33 34 34 35 36 37
22 23 24 24 24 24 23 23 22 21 20 19 17 15 13 11 8 6 5 4 5 7 11 14 17 19 21 23 25 27 28 29 29 30 31 31 32 32 33 34 34 36 35
21 22 23 24 24 23 23 23 22 21 20 19 18 17 15 12 9 8 6 4 4 5 7 9 12 15 18 20 22 25 26 28 29 29 30 32 32 31 32 32 33 34 35
21 22 23 23 24 23 23 23 22 21 20 19 18 18 16 14 11 9 8 6 4 3 4 6 9 12 15 18 19 22 24 25 27 28 29 30 31 31 32 32 32 33 34
20 21 22 22 23 23 23 23 22 21 21 19 18 17 17 15 13 11 9 8 6 4 3 4 6 9 12 14 16 18 21 23 25 26 26 28 29 29 30 31 31 33 33
20 20 21 21 22 23 23 23 22 21 21 20 19 18 16 16 14 12 10 9 7 5 4 4 4 6 9 11 13 16 18 20 22 23 24 25 26 28 29 30 30 31 31
19 20 20 21 21 22 22 22 22 21 21 20 19 18 16 15 14 13 11 10 9 8 6 4 4 4 6 8 11 13 15 17 19 20 21 22 23 25 27 28 30 30 30
19 20 20 21 21 21 21 21 21 21 20 20 19 18 17 15 14 13 12 11 10 9 8 6 5 4 5 7 9 11 12 15 17 18 19 21 22 23 24 26 27 29 30
19 20 20 20 21 21 21 21 21 21 20 20 19 18 17 15 14 14 13 12 11 10 9 7 6 5 5 6 8 9 11 13 14 16 17 19 21 22 23 24 25 26 28
20 20 20 21 21 21 21 21 21 20 20 19 19 18 17 16 14 13 13 12 11 11 10 8 7 7 7 6 7 8 10 11 13 14 16 18 19 21 22 23 24 26 26
20 21 21 21 21 21 21 21 20 20 19 19 19 18 17 16 15 14 13 13 12 11 11 9 8 8 8 7 7 7 8 10 11 13 15 16 18 19 21 22 23 24 25
21 21 22 22 21 21 21 21 21 20 20 19 19 18 18 16 15 15 14 13 12 12 12 11 11 10 9 9 9 9 9 10 11 13 14 16 17 19 19 20 21 23 24
22 22 23 23 23 22 22 22 22 21 21 20 19 19 18 17 17 16 15 14 13 13 13 13 12 11 11 10 10 10 10 10 11 12 14 15 16 16 18 18 19 20 22
23 24 24 24 24 24 24 23 23 23 22 22 21 20 19 19 18 18 17 16 15 14 14 13 13 12 12 12 11 11 11 11 11 12 13 14 15 15 16 17 18 19 20
25 25 26 26 26 26 26 25 25 24 24 23 23 22 21 20 20 19 19 18 17 17 16 16 15 14 14 14 13 13 13 13 13 13 13 13 14 15 16 17 17 18 20
26 27 27 27 27 27 27 27 27 26 26 25 24 23 23 22 22 21 21 20 20 19 19 18 18 17 16 16 16 15 15 15 15 15 15 15 15 15 16 16 17 18 19
28 27 28 28 27 27 27 27 28 28 28 27 26 25 25 25 24 23 23 22 22 21 21 21 21 20 20 19 18 18 18 18 17 17 17 16 16 16 16 17 18 18 19
29 29 29 29 29 29 29 28 28 28 29 29 29 28 27 27 27 27 26 25 25 25 24 24 24 24 23 22 22 21 21 21 20 20 19 19 18 18 18 18 18 19 19
31 31 31 31 31 31 31 31 31 31 30 30 30 30 30 30 30 29 29 28 28 28 27 27 27 27 27 26 26 25 25 24 24 23 23 22 22 22 21 22 22 22 21
33 33 33 33 33 33 34 34 34 34 33 32 32 32 32 32 32 31 31 31 31 31 30 30 30 30 30 30 29 29 29 28 27 27 26 26 26 25 25 25 24 24 24
35 35 35 35 35 35 35 35 35 35 35 35 34 34 33 33 33 33 33 34 34 34 34 33 33 33 33 33 33 32 32 32 31 31 30 30 30 29 29 28 28 28 28
36 36 36 36 37 37 37 37 37 36 36 35 35 35 35 35 35 35 35 36 36 37 37 37 37 37 36 36 36 36 36 36 35 35 35 35 34 34 34 33 32 32 32
37 38 38 38 38 38 38 38 37 37 37 36 36 36 37 37 37 38 38 38 39 40 40 40 41 41 41 41 41 40 40 40 40 40 40 39 39 39 39 38 37 37 36
39 39 39 40 40 39 39 38 38 38 38 38 38 39 39 39 40 40 41 41 42 42 43 43 44 44 44 45 45 45 45 45 45 45 45 44 44 44 43 43 42 41 41
40 40 41 41 40 40 40 40 40 40 40 40 41 41 41 42 42 43 43 44 44 45 45 46 47 47 48 48 48 49 49 49 49 49 49 49 48 48 48 48 47 46 45
42 41 41 41 41 41 41 41 41 42 42 42 42 43 43 44 45 45 46 46 46 47 48 50 50 51 51 51 51 51 51 51 52 52 53 53 52 52 52 52 51 51 50
Wind_Direction
13 14 14 14 14 14 14 15 14 14 16 17 15 11 7 357 343 329 298 263 251 239 234 233 231 230 230 229 228 229 230 230 230 231 234 236 237 237 237 239 240 241 243
11 12 13 13 12 13 14 14 15 16 17 18 17 16 13 10 5 354 335 289 261 245 237 235 233 233 232 231 231 232 232 232 231 232 234 236 236 238 238 239 241 241 243
7 9 10 11 12 12 12 13 14 16 16 17 18 18 17 14 12 6 356 334 292 262 245 239 235 233 232 232 232 233 233 233 233 234 234 236 238 240 240 242 242 243 244
4 6 8 10 10 11 12 13 14 14 16 17 17 19 19 20 18 13 11 5 345 304 261 247 242 238 234 232 232 232 233 234 234 236 236 239 241 243 243 244 244 245 245
360 2 4 6 8 9 10 11 13 14 16 17 16 17 18 20 20 17 18 13 5 347 309 274 257 245 236 233 232 234 235 235 236 238 240 242 243 244 244 244 245 246 246
355 357 359 1 3 5 7 8 10 12 13 14 15 14 15 18 19 18 16 13 10 357 334 309 280 256 243 240 239 239 239 237 238 239 240 243 245 245 245 244 244 244 245
350 352 354 356 359 1 3 5 7 8 9 10 11 11 12 15 16 17 15 12 8 2 349 326 305 285 264 252 246 244 242 239 239 240 242 245 247 246 245 244 243 243 244
344 347 349 351 353 355 357 360 2 3 4 5 7 8 9 10 11 13 13 11 9 6 1 351 327 305 288 270 258 254 248 243 241 242 243 244 246 245 244 245 245 245 244
339 342 344 345 347 350 353 355 357 358 360 1 1 3 5 5 5 8 7 7 6 4 1 354 343 325 304 284 273 264 259 250 244 244 245 244 246 248 247 247 247 247 246
334 336 338 340 342 344 346 349 351 353 354 357 358 359 360 0 359 359 357 357 358 359 357 353 345 334 322 303 289 275 264 257 253 251 251 251 250 250 250 249 249 247 245
329 331 332 334 337 338 340 341 343 345 347 349 351 352 352 354 355 353 351 350 350 349 348 346 340 332 327 318 304 288 277 268 262 257 256 256 254 252 252 252 250 247 245
324 326 328 329 331 332 334 335 336 337 339 341 343 343 344 346 346 347 346 344 342 340 339 336 334 328 322 313 306 297 287 281 276 270 265 262 259 257 256 254 252 248 244
319 321 323 324 325 327 328 328 329 329 330 332 333 334 334 334 335 335 335 335 334 332 332 332 328 325 322 316 306 297 291 289 285 277 271 267 263 262 260 256 253 249 243
315 316 318 319 320 321 322 322 322 323 323 324 325 325 325 324 324 324 324 323 322 322 322 323 323 321 319 315 309 302 297 295 292 282 276 272 266 265 264 259 255 250 244
312 313 314 315 316 317 318 318 318 318 318 318 318 318 318 317 316 316 315 315 314 313 312 312 313 313 311 310 307 301 296 292 291 285 281 277 271 269 268 262 259 253 248
309 310 311 311 311 313 314 314 314 314 314 314 314 313 313 312 311 309 308 307 307 307 305 304 304 304 304 304 302 300 297 293 289 287 284 280 275 272 268 265 264 259 253
306 307 308 308 308 309 310 311 311 311 311 310 310 309 309 308 307 305 304 303 302 301 300 299 297 296 295 295 295 294 292 289 287 285 283 280 278 274 271 267 264 261 256
303 303 304 305 306 306 306 307 308 308 307 307 307 306 305 305 304 302 301 300 299 298 297 296 293 291 290 289 288 287 286 285 283 281 279 278 276 274 271 268 265 263 259
300 301 302 302 303 303 303 303 304 304 303 303 302 302 301 300 300 299 298 297 297 296 296 294 292 290 288 287 285 284 282 281 280 278 276 274 272 271 270 267 264 264 261
297 299 299 300 300 301 301 301 301 301 301 300 299 298 298 297 296 296 295 295 294 294 293 292 291 289 287 285 283 282 280 278 276 275 273 272 270 269 268 266 264 263 261
295 297 298 298 298 298 299 299 299 299 299 299 298 297 297 296 294 293 293 292 292 291 291 290 288 287 286 284 282 280 279 277 275 273 272 270 269 267 266 265 263 262 260
294 295 296 297 297 297 298 298 298 298 298 297 297 296 296 295 294 293 292 291 290 290 289 288 287 285 283 282 280 279 277 275 274 273 272 271 269 267 266 265 263 261 260
292 294 295 296 297 297 297 297 297 297 297 296 296 295 295 294 294 293 292 291 290 289 289 288 286 285 283 281 279 278 276 274 272 271 270 269 269 267 266 264 263 261 260
291 292 294 295 296 296 296 296 297 297 296 295 295 295 295 294 293 292 292 291 290 289 288 288 287 285 283 281 280 278 276 274 272 271 269 268 267 266 265 263 262 260 259
289 291 293 294 295 295 295 296 296 296 296 295 295 295 294 294 293 293 292 291 290 289 288 287 286 285 283 282 280 278 276 274 272 271 269 268 266 265 263 262 260 259 257
288 290 292 293 294 295 295 295 295 295 295 294 294 294 294 294 294 293 292 292 291 290 289 288 287 285 283 281 280 278 276 274 273 271 269 267 265 264 263 261 259 258 256
Height
5810 5804 5799 5794 5789 5784 5779 5774 5769 5765 5760 5756 5753 5750 5748 5746 5745 5744 5743 5743 5744 5745 5746 5747 5750 5753 5756 5759 5762 5766 5769 5773 5777 5780 5783 5787 5790 5793 5796 5799 5801 5804 5807
5811 5806 5801 5796 5791 5786 5781 5776 5771 5766 5762 5758 5755 5751 5748 5746 5744 5743 5742 5741 5741 5742 5743 5744 5746 5748 5751 5754 5757 5760 5763 5767 5770 5773 5776 5779 5782 5785 5788 5791 5793 5796 5799
5812 5807 5802 5797 5792 5787 5782 5777 5773 5768 5764 5760 5756 5753 5749 5746 5744 5743 5741 5740 5740 5740 5740 5741 5742 5744 5747 5749 5752 5754 5757 5760 5764 5767 5769 5772 5775 5777 5780 5783 5786 5788 5790
5813 5808 5803 5799 5794 5789 5784 5779 5774 5770 5765 5762 5758 5754 5751 5747 5745 5743 5741 5740 5739 5739 5739 5739 5740 5741 5743 5745 5747 5749 5752 5754 5757 5760 5762 5765 5767 5770 5772 5775 5777 5780 5782
5813 5809 5804 5800 5795 5790 5785 5781 5776 5771 5767 5763 5760 5756 5752 5749 5746 5744 5742 5741 5739 5739 5738 5738 5738 5738 5739 5741 5742 5744 5746 5749 5751 5753 5756 5758 5760 5762 5765 5767 5769 5771 5774
5813 5809 5805 5800 5796 5791 5786 5782 5777 5773 5769 5765 5761 5757 5754 5751 5748 5745 5743 5742 5740 5739 5738 5737 5737 5736 5737 5737 5739 5740 5742 5743 5746 5748 5750 5752 5753 5755 5757 5759 5761 5764 5766
5813 5809 5805 5801 5796 5792 5788 5783 5779 5774 5770 5766 5763 5759 5755 5752 5749 5747 5744 5742 5741 5739 5737 5736 5736 5735 5735 5735 5735 5736 5737 5738 5740 5742 5744 5745 5747 5749 5750 5752 5753 5755 5758
5812 5808 5804 5800 5796 5792 5788 5784 5780 5775 5771 5768 5764 5760 5757 5753 5750 5748 5745 5743 5741 5739 5737 5736 5735 5734 5733 5733 5733 5733 5733 5734 5736 5737 5738 5740 5741 5741 5743 5745 5746 5747 5749
5810 5807 5803 5799 5796 5792 5788 5784 5780 5776 5772 5768 5764 5761 5757 5754 5751 5749 5746 5744 5742 5739 5738 5736 5734 5733 5732 5731 5731 5730 5730 5731 5731 5732 5733 5734 5735 5736 5737 5738 5739 5740 5742
5808 5805 5802 5798 5794 5791 5787 5783 5780 5776 5772 5768 5765 5761 5758 5755 5752 5749 5747 5744 5742 5740 5738 5736 5734 5732 5731 5730 5729 5728 5728 5727 5728 5728 5729 5729 5729 5730 5731 5731 5732 5733 5735
5806 5803 5799 5796 5793 5789 5786 5782 5779 5775 5772 5768 5765 5761 5758 5755 5752 5749 5747 5744 5742 5740 5738 5735 5733 5732 5730 5728 5727 5726 5725 5725 5724 5724 5724 5725 5725 5725 5725 5725 5726 5727 5728
5803 5800 5796 5793 5790 5787 5783 5780 5777 5774 5770 5767 5764 5760 5757 5754 5752 5749 5746 5744 5741 5739 5737 5734 5732 5730 5729 5727 5726 5724 5723 5722 5721 5721 5721 5720 5720 5720 5720 5720 5720 5721 5722
5799 5796 5793 5790 5787 5784 5781 5777 5774 5771 5768 5765 5762 5759 5756 5753 5750 5748 5745 5742 5740 5738 5735 5733 5731 5729 5727 5725 5724 5722 5721 5720 5719 5718 5717 5716 5716 5715 5715 5715 5715 5715 5716
5795 5792 5789 5786 5783 5780 5777 5774 5771 5768 5765 5762 5759 5757 5754 5751 5748 5746 5743 5740 5738 5735 5733 5731 5729 5727 5725 5723 5721 5720 5718 5717 5716 5714 5713 5712 5712 5711 5711 5710 5710 5710 5711
5790 5787 5784 5781 5778 5775 5772 5769 5766 5763 5761 5758 5755 5753 5750 5748 5745 5742 5740 5737 5735 5733 5730 5728 5726 5724 5722 5720 5718 5717 5715 5714 5712 5711 5710 5709 5708 5707 5706 5706 5705 5705 5706
5784 5781 5778 5776 5773 5770 5767 5764 5761 5758 5755 5752 5750 5748 5745 5743 5740 5738 5736 5733 5731 5729 5726 5724 5722 5720 5718 5717 5715 5713 5711 5710 5708 5707 5706 5705 5704 5703 5702 5701 5701 5701 5701
5778 5775 5772 5770 5767 5764 5761 5758 5755 5752 5749 5746 5744 5741 5739 5737 5734 5732 5730 5728 5725 5723 5721 5719 5717 5715 5714 5712 5710 5709 5707 5705 5704 5702 5701 5700 5699 5698 5697 5697 5696 5696 5696
5771 5768 5766 5763 5760 5757 5755 5752 5749 5746 5743 5739 5737 5734 5732 5730 5727 5725 5723 5721 5719 5717 5715 5713 5711 5709 5707 5706 5704 5703 5701 5700 5698 5697 5696 5695 5694 5693 5692 5691 5691 5691 5690
5763 5760 5758 5755 5752 5750 5747 5744 5741 5739 5736 5733 5730 5727 5724 5722 5719 5717 5715 5713 5711 5709 5707 5705 5703 5701 5700 5698 5697 5695 5694 5693 5691 5690 5689 5688 5687 5687 5686 5685 5685 5684 5684
5754 5752 5749 5746 5744 5741 5738 5735 5732 5730 5727 5724 5722 5719 5716 5713 5711 5708 5706 5704 5702 5700 5698 5696 5694 5692 5691 5689 5688 5686 5685 5684 5683 5682 5681 5681 5680 5679 5679 5678 5678 5677 5677
5745 5742 5740 5737 5734 5732 5729 5726 5723 5720 5717 5715 5712 5709 5707 5704 5702 5699 5696 5694 5692 5690 5688 5686 5684 5682 5680 5679 5677 5676 5675 5674 5673 5672 5672 5671 5671 5670 5670 5670 5669 5669 5669
5735 5732 5730 5727 5724 5721 5718 5716 5713 5710 5707 5704 5701 5699 5696 5694 5691 5689 5686 5683 5681 5678 5676 5674 5672 5670 5669 5667 5666 5664 5663 5662 5662 5661 5661 5660 5660 5660 5659 5659 5659 5659 5659
5724 5722 5719 5716 5714 5711 5708 5705 5702 5699 5696 5693 5691 5688 5685 5682 5680 5677 5674 5671 5668 5666 5663 5661 5659 5657 5655 5653 5652 5651 5650 5649 5648 5648 5648 5648 5647 5647 5647 5647 5647 5648 5648
5713 5710 5708 5705 5702 5699 5696 5693 5690 5687 5684 5682 5679 5676 5673 5670 5667 5664 5661 5658 5655 5652 5649 5647 5644 5642 5640 5638 5636 5635 5634 5633 5633 5633 5632 5632 5632 5632 5632 5633 5633 5634 5635
5701 5698 5696 5693 5690 5687 5684 5681 5678 5675 5672 5669 5666 5663 5660 5657 5654 5650 5647 5644 5640 5637 5634 5631 5628 5626 5623 5621 5619 5618 5616 5615 5615 5615 5615 5615 5615 5615 5616 5616 5617 5618 5619
5688 5686 5683 5681 5678 5675 5672 5669 5666 5662 5659 5656 5653 5649 5646 5643 5639 5636 5632 5629 5625 5621 5618 5614 5610 5607 5605 5603 5601 5599 5597 5596 5595 5595 5595 5595 5595 5596 5597 5597 5599 5600 5601